Time,TemperatureF,DewpointF,PressureIn,WindDirection,WindDirectionDegrees,WindSpeedMPH,WindSpeedGustMPH,Humidity,HourlyPrecipIn,Conditions,Clouds,dailyrainin,SolarRadiationWatts/m^2,SoftwareType,DateUTC
2013-07-04 00:02:00,62.4,56.8,30.01,East,95,1.0,1.0,82,0.00,,,0.00,0,Wunderground v.1.15,2013-07-04 05:02:00,
2013-07-04 00:12:00,62.6,57.4,30.01,East,95,0.0,0.0,83,0.00,,,0.00,0,Wunderground v.1.15,2013-07-04 05:12:00,
2013-07-04 00:22:00,62.6,57.4,30.00,East,95,0.0,0.0,83,0.00,,,0.00,0,Wunderground v.1.15,2013-07-04 05:22:00,
2013-07-04 00:32:00,62.6,57.7,30.00,East,95,0.0,0.0,84,0.00,,,0.00,0,Wunderground v.1.15,2013-07-04 05:32:00,
2013-07-04 00:42:00,62.6,57.4,30.00,East,95,0.0,0.0,83,0.00,,,0.00,0,Wunderground v.1.15,2013-07-04 05:42:00,
2013-07-04 00:52:00,62.6,57.4,30.00,East,93,1.0,2.0,83,0.00,,,0.00,0,Wunderground v.1.15,2013-07-04 05:52:00,
2013-07-04 01:02:00,62.6,57.7,30.00,East,95,2.0,2.0,84,0.00,,,0.00,0,Wunderground v.1.15,2013-07-04 06:02:00,
2013-07-04 01:12:00,62.6,57.7,29.99,East,95,2.0,2.0,84,0.00,,,0.00,0,Wunderground v.1.15,2013-07-04 06:12:00,
2013-07-04 01:22:00,62.4,58.2,29.99,East,89,0.0,0.0,86,0.00,,,0.00,0,Wunderground v.1.15,2013-07-04 06:22:00,
2013-07-04 01:32:00,62.3,58.4,29.99,East,95,0.0,0.0,87,0.00,,,0.00,0,Wunderground v.1.15,2013-07-04 06:32:00,
2013-07-04 01:42:00,62.3,58.7,29.99,East,95,0.0,0.0,88,0.00,,,0.00,0,Wunderground v.1.15,2013-07-04 06:42:00,
2013-07-04 01:52:00,62.4,59.1,29.99,East,95,0.0,0.0,89,0.00,,,0.00,0,Wunderground v.1.15,2013-07-04 06:52:00,
2013-07-04 02:02:00,62.6,59.6,29.99,East,95,0.0,0.0,90,0.00,,,0.00,0,Wunderground v.1.15,2013-07-04 07:02:00,
2013-07-04 02:12:00,62.7,60.0,29.99,East,95,0.0,0.0,91,0.00,,,0.00,0,Wunderground v.1.15,2013-07-04 07:12:00,
2013-07-04 02:22:00,62.7,60.0,29.99,East,95,0.0,0.0,91,0.00,,,0.00,0,Wunderground v.1.15,2013-07-04 07:22:00,
2013-07-04 02:32:00,62.9,60.5,29.99,East,95,1.0,1.0,92,0.00,,,0.00,0,Wunderground v.1.15,2013-07-04 07:32:00,
2013-07-04 02:42:00,62.9,60.5,29.98,East,95,0.0,0.0,92,0.00,,,0.00,0,Wunderground v.1.15,2013-07-04 07:42:00,
2013-07-04 02:52:00,62.6,60.5,29.98,East,95,0.0,0.0,93,0.00,,,0.00,0,Wunderground v.1.15,2013-07-04 07:52:00,
2013-07-04 03:02:00,62.0,60.3,29.98,East,95,0.0,0.0,94,0.00,,,0.00,0,Wunderground v.1.15,2013-07-04 08:02:00,
2013-07-04 03:12:00,62.0,60.6,29.98,East,93,0.0,0.0,95,0.00,,,0.00,0,Wunderground v.1.15,2013-07-04 08:12:00,
2013-07-04 03:22:00,62.1,60.9,29.98,East,95,0.0,1.0,96,0.00,,,0.00,0,Wunderground v.1.15,2013-07-04 08:22:00,
2013-07-04 03:32:00,62.3,61.1,29.98,East,95,1.0,1.0,96,0.00,,,0.00,0,Wunderground v.1.15,2013-07-04 08:32:00,
2013-07-04 03:42:00,62.4,61.2,29.98,East,95,1.0,3.0,96,0.00,,,0.00,0,Wunderground v.1.15,2013-07-04 08:42:00,
2013-07-04 03:52:00,62.6,61.4,29.99,East,89,3.0,3.0,96,0.00,,,0.00,0,Wunderground v.1.15,2013-07-04 08:52:00,
2013-07-04 04:02:00,62.6,61.4,29.99,East,95,1.0,1.0,96,0.00,,,0.00,0,Wunderground v.1.15,2013-07-04 09:02:00,
2013-07-04 04:12:00,62.6,61.4,29.99,East,95,1.0,2.0,96,0.00,,,0.00,0,Wunderground v.1.15,2013-07-04 09:12:00,
2013-07-04 04:22:00,62.7,61.5,29.99,East,95,1.0,2.0,96,0.00,,,0.00,0,Wunderground v.1.15,2013-07-04 09:22:00,
2013-07-04 04:32:00,62.6,61.4,29.99,East,95,3.0,3.0,96,0.00,,,0.00,0,Wunderground v.1.15,2013-07-04 09:32:00,
2013-07-04 04:42:00,62.4,61.2,29.99,SW,236,4.0,7.0,96,0.00,,,0.00,0,Wunderground v.1.15,2013-07-04 09:42:00,
2013-07-04 04:52:00,62.4,61.2,30.00,SW,234,3.0,3.0,96,0.00,,,0.00,0,Wunderground v.1.15,2013-07-04 09:52:00,
2013-07-04 05:02:00,62.4,61.2,30.00,SW,234,0.0,5.0,96,0.00,,,0.00,0,Wunderground v.1.15,2013-07-04 10:02:00,
2013-07-04 05:12:00,62.1,61.2,30.00,SW,232,3.0,5.0,97,0.00,,,0.00,0,Wunderground v.1.15,2013-07-04 10:12:00,
2013-07-04 05:22:00,62.0,61.1,30.01,SW,232,4.0,4.0,97,0.00,,,0.00,0,Wunderground v.1.15,2013-07-04 10:22:00,
2013-07-04 05:42:00,61.8,61.2,30.01,SW,232,1.0,1.0,98,0.00,,,0.00,14,Wunderground v.1.15,2013-07-04 10:42:00,
2013-07-04 05:52:00,61.8,61.5,30.01,SW,232,1.0,1.0,99,0.00,,,0.00,19,Wunderground v.1.15,2013-07-04 10:52:00,
2013-07-04 06:12:00,62.0,61.7,30.01,SW,232,1.0,1.0,99,0.00,,,0.00,35,Wunderground v.1.15,2013-07-04 11:12:00,
2013-07-04 06:22:00,62.3,62.0,30.01,SW,224,1.0,1.0,99,0.00,,,0.00,44,Wunderground v.1.15,2013-07-04 11:22:00,
2013-07-04 06:33:00,62.4,62.1,30.01,SW,232,1.0,1.0,99,0.00,,,0.00,33,Wunderground v.1.15,2013-07-04 11:33:00,
2013-07-04 06:42:00,62.4,62.1,30.02,SW,232,2.0,3.0,99,0.00,,,0.00,26,Wunderground v.1.15,2013-07-04 11:42:00,
2013-07-04 06:52:00,62.3,62.0,30.02,SW,232,3.0,3.0,99,0.00,,,0.00,25,Wunderground v.1.15,2013-07-04 11:52:00,
2013-07-04 07:02:00,62.4,62.4,30.02,SW,232,2.0,3.0,100,0.00,,,0.00,76,Wunderground v.1.15,2013-07-04 12:02:00,
2013-07-04 07:12:00,62.6,62.6,30.02,SW,232,2.0,2.0,100,0.00,,,0.00,81,Wunderground v.1.15,2013-07-04 12:12:00,
2013-07-04 07:22:00,62.9,62.6,30.03,SW,232,2.0,4.0,99,0.00,,,0.00,90,Wunderground v.1.15,2013-07-04 12:22:00,
2013-07-04 07:32:00,63.4,63.1,30.03,SW,232,3.0,3.0,99,0.00,,,0.00,113,Wunderground v.1.15,2013-07-04 12:32:00,
2013-07-04 07:42:00,63.7,63.4,30.03,SW,232,3.0,3.0,99,0.00,,,0.00,116,Wunderground v.1.15,2013-07-04 12:42:00,
2013-07-04 07:52:00,64.0,63.4,30.03,SW,232,2.0,3.0,98,0.00,,,0.00,83,Wunderground v.1.15,2013-07-04 12:52:00,
2013-07-04 08:12:00,64.5,63.6,30.04,SW,232,3.0,3.0,97,0.00,,,0.00,91,Wunderground v.1.15,2013-07-04 13:12:00,
2013-07-04 08:22:00,64.7,63.5,30.04,SW,232,2.0,2.0,96,0.00,,,0.00,137,Wunderground v.1.15,2013-07-04 13:22:00,
2013-07-04 08:42:00,65.5,64.3,30.04,SW,232,3.0,3.0,96,0.00,,,0.00,204,Wunderground v.1.15,2013-07-04 13:42:00,
2013-07-04 08:52:00,66.0,64.5,30.04,SW,232,2.0,2.0,95,0.00,,,0.00,234,Wunderground v.1.15,2013-07-04 13:52:00,
2013-07-04 09:02:00,66.8,65.0,30.04,SW,232,2.0,2.0,94,0.00,,,0.00,260,Wunderground v.1.15,2013-07-04 14:02:00,
2013-07-04 09:12:00,67.3,64.9,30.03,SW,232,3.0,6.0,92,0.00,,,0.00,276,Wunderground v.1.15,2013-07-04 14:12:00,
2013-07-04 09:22:00,67.6,64.6,30.03,SW,224,4.0,5.0,90,0.00,,,0.00,280,Wunderground v.1.15,2013-07-04 14:22:00,
2013-07-04 09:32:00,68.1,64.4,30.03,SW,224,3.0,3.0,88,0.00,,,0.00,354,Wunderground v.1.15,2013-07-04 14:32:00,
2013-07-04 09:42:00,68.4,64.4,30.02,SW,223,4.0,6.0,87,0.00,,,0.00,252,Wunderground v.1.15,2013-07-04 14:42:00,
2013-07-04 09:52:00,68.8,64.8,30.02,SW,223,4.0,4.0,87,0.00,,,0.00,257,Wunderground v.1.15,2013-07-04 14:52:00,
2013-07-04 10:02:00,68.9,64.9,30.02,SW,223,4.0,4.0,87,0.00,,,0.00,331,Wunderground v.1.15,2013-07-04 15:02:00,
2013-07-04 10:12:00,68.8,65.1,30.02,SW,215,3.0,3.0,88,0.00,,,0.00,366,Wunderground v.1.15,2013-07-04 15:12:00,
2013-07-04 10:22:00,69.3,65.6,30.02,SW,215,1.0,1.0,88,0.00,,,0.00,519,Wunderground v.1.15,2013-07-04 15:22:00,
2013-07-04 10:32:00,70.6,65.9,30.02,SSW,212,3.0,3.0,85,0.00,,,0.00,554,Wunderground v.1.15,2013-07-04 15:32:00,
2013-07-04 10:42:00,70.3,64.9,30.01,SSW,199,5.0,5.0,83,0.00,,,0.00,758,Wunderground v.1.15,2013-07-04 15:42:00,
2013-07-04 10:52:00,70.8,65.7,30.01,SSW,198,5.0,5.0,84,0.00,,,0.00,809,Wunderground v.1.15,2013-07-04 15:52:00,
2013-07-04 11:02:00,71.8,65.7,30.01,SSW,193,4.0,10.0,81,0.00,,,0.00,839,Wunderground v.1.15,2013-07-04 16:02:00,
2013-07-04 11:12:00,72.0,65.8,30.00,SSW,202,6.0,8.0,81,0.00,,,0.00,927,Wunderground v.1.15,2013-07-04 16:12:00,
2013-07-04 11:22:00,72.5,66.7,30.00,South,174,5.0,6.0,82,0.00,,,0.00,968,Wunderground v.1.15,2013-07-04 16:22:00,
2013-07-04 11:32:00,71.8,65.3,30.00,SSE,168,5.0,6.0,80,0.00,,,0.00,318,Wunderground v.1.15,2013-07-04 16:32:00,
2013-07-04 11:42:00,71.6,65.1,30.00,SSE,154,4.0,5.0,80,0.00,,,0.00,333,Wunderground v.1.15,2013-07-04 16:42:00,
2013-07-04 11:52:00,70.8,65.4,30.00,SSE,147,8.0,8.0,83,0.00,,,0.00,987,Wunderground v.1.15,2013-07-04 16:52:00,
2013-07-04 12:02:00,69.9,64.5,30.00,SE,143,7.0,7.0,83,0.00,,,0.00,283,Wunderground v.1.15,2013-07-04 17:02:00,
2013-07-04 12:12:00,70.6,65.2,30.00,SE,133,6.0,6.0,83,0.00,,,0.00,987,Wunderground v.1.15,2013-07-04 17:12:00,
2013-07-04 12:22:00,70.9,64.1,30.00,SSW,206,8.0,11.0,79,0.00,,,0.00,924,Wunderground v.1.15,2013-07-04 17:22:00,
2013-07-04 12:32:00,71.3,64.4,30.00,South,169,11.0,11.0,79,0.00,,,0.00,978,Wunderground v.1.15,2013-07-04 17:32:00,
2013-07-04 12:42:00,71.8,64.9,30.00,SSW,192,10.0,14.0,79,0.00,,,0.00,1031,Wunderground v.1.15,2013-07-04 17:42:00,
2013-07-04 12:52:00,71.5,64.6,30.00,SSW,203,10.0,14.0,79,0.00,,,0.00,848,Wunderground v.1.15,2013-07-04 17:52:00,
2013-07-04 13:02:00,71.5,65.0,30.00,South,176,10.0,10.0,80,0.00,,,0.00,991,Wunderground v.1.15,2013-07-04 18:02:00,
2013-07-04 13:12:00,71.1,65.0,30.01,SSE,155,10.0,10.0,81,0.00,,,0.00,901,Wunderground v.1.15,2013-07-04 18:12:00,
2013-07-04 13:22:00,70.8,64.7,30.00,South,178,11.0,13.0,81,0.00,,,0.00,992,Wunderground v.1.15,2013-07-04 18:22:00,
2013-07-04 13:32:00,70.9,64.8,30.00,SSE,162,11.0,15.0,81,0.00,,,0.00,917,Wunderground v.1.15,2013-07-04 18:32:00,
2013-07-04 13:42:00,70.1,64.3,30.00,South,184,9.0,11.0,82,0.00,,,0.00,310,Wunderground v.1.15,2013-07-04 18:42:00,
2013-07-04 13:52:00,71.6,64.7,30.00,South,172,9.0,9.0,79,0.00,,,0.00,841,Wunderground v.1.15,2013-07-04 18:52:00,
2013-07-04 14:02:00,72.3,65.1,30.00,SSW,210,10.0,16.0,78,0.00,,,0.00,846,Wunderground v.1.15,2013-07-04 19:02:00,
2013-07-04 14:12:00,72.5,65.2,30.00,SSW,195,10.0,12.0,78,0.00,,,0.00,813,Wunderground v.1.15,2013-07-04 19:12:00,
2013-07-04 14:22:00,71.8,63.8,30.00,SSE,158,11.0,11.0,76,0.00,,,0.00,787,Wunderground v.1.15,2013-07-04 19:22:00,
2013-07-04 14:32:00,71.6,63.6,30.00,South,175,11.0,11.0,76,0.00,,,0.00,797,Wunderground v.1.15,2013-07-04 19:32:00,
2013-07-04 14:42:00,72.0,64.0,30.00,South,182,11.0,12.0,76,0.00,,,0.00,774,Wunderground v.1.15,2013-07-04 19:42:00,
2013-07-04 14:52:00,72.5,64.5,29.99,South,188,12.0,12.0,76,0.00,,,0.00,764,Wunderground v.1.15,2013-07-04 19:52:00,
2013-07-04 15:02:00,73.0,63.8,29.99,South,178,9.0,10.0,73,0.00,,,0.00,746,Wunderground v.1.15,2013-07-04 20:02:00,
2013-07-04 15:12:00,72.5,63.4,29.99,South,184,10.0,10.0,73,0.00,,,0.00,674,Wunderground v.1.15,2013-07-04 20:12:00,
2013-07-04 15:22:00,71.3,62.2,29.99,SSE,160,11.0,12.0,73,0.00,,,0.00,714,Wunderground v.1.15,2013-07-04 20:22:00,
2013-07-04 15:32:00,70.6,61.1,29.99,SSE,168,12.0,13.0,72,0.00,,,0.00,697,Wunderground v.1.15,2013-07-04 20:32:00,
2013-07-04 15:42:00,71.5,62.8,29.99,SSW,198,12.0,12.0,74,0.00,,,0.00,670,Wunderground v.1.15,2013-07-04 20:42:00,
2013-07-04 15:52:00,70.9,61.8,29.99,SSW,202,10.0,13.0,73,0.00,,,0.00,656,Wunderground v.1.15,2013-07-04 20:52:00,
2013-07-04 16:02:00,70.6,60.3,29.99,SSW,195,13.0,13.0,70,0.00,,,0.00,633,Wunderground v.1.15,2013-07-04 21:02:00,
2013-07-04 16:12:00,70.9,59.8,30.00,SSW,195,14.0,14.0,68,0.00,,,0.00,575,Wunderground v.1.15,2013-07-04 21:12:00,
2013-07-04 16:22:00,71.1,60.0,30.00,SSW,205,14.0,18.0,68,0.00,,,0.00,611,Wunderground v.1.15,2013-07-04 21:22:00,
2013-07-04 16:42:00,68.8,59.0,30.00,SSW,195,10.0,13.0,71,0.00,,,0.00,211,Wunderground v.1.15,2013-07-04 21:42:00,
2013-07-04 16:52:00,70.4,59.7,29.99,SSW,202,11.0,11.0,69,0.00,,,0.00,618,Wunderground v.1.15,2013-07-04 21:52:00,
2013-07-04 17:12:00,72.0,59.2,29.99,SSW,205,12.0,12.0,64,0.00,,,0.00,473,Wunderground v.1.15,2013-07-04 22:12:00,
2013-07-04 17:22:00,72.1,59.2,29.98,SSW,192,12.0,16.0,64,0.00,,,0.00,450,Wunderground v.1.15,2013-07-04 22:22:00,
2013-07-04 17:32:00,72.0,58.3,29.98,SSW,196,14.0,20.0,62,0.00,,,0.00,419,Wunderground v.1.15,2013-07-04 22:32:00,
2013-07-04 17:42:00,72.1,57.9,29.98,SW,216,13.0,13.0,61,0.00,,,0.00,389,Wunderground v.1.15,2013-07-04 22:42:00,
2013-07-04 17:52:00,72.0,58.7,29.98,SSW,203,13.0,18.0,63,0.00,,,0.00,361,Wunderground v.1.15,2013-07-04 22:52:00,
2013-07-04 18:02:00,71.8,58.1,29.98,South,181,13.0,16.0,62,0.00,,,0.00,334,Wunderground v.1.15,2013-07-04 23:02:00,
2013-07-04 18:12:00,71.8,59.0,29.98,South,186,12.0,14.0,64,0.00,,,0.00,308,Wunderground v.1.15,2013-07-04 23:12:00,
2013-07-04 18:22:00,71.8,59.4,29.98,SSW,200,9.0,9.0,65,0.00,,,0.00,271,Wunderground v.1.15,2013-07-04 23:22:00,
2013-07-04 18:32:00,71.3,58.9,29.98,SSW,208,9.0,10.0,65,0.00,,,0.00,253,Wunderground v.1.15,2013-07-04 23:32:00,
2013-07-04 18:42:00,70.9,59.0,29.98,South,189,11.0,11.0,66,0.00,,,0.00,225,Wunderground v.1.15,2013-07-04 23:42:00,
2013-07-04 18:52:00,70.6,59.1,29.98,SSW,213,11.0,12.0,67,0.00,,,0.00,197,Wunderground v.1.15,2013-07-04 23:52:00,
2013-07-04 19:02:00,70.4,59.3,29.98,SW,220,9.0,12.0,68,0.00,,,0.00,174,Wunderground v.1.15,2013-07-05 00:02:00,
2013-07-04 19:12:00,70.1,58.6,29.97,SSW,209,10.0,11.0,67,0.00,,,0.00,155,Wunderground v.1.15,2013-07-05 00:12:00,
2013-07-04 19:22:00,69.9,58.9,29.97,SSW,200,11.0,11.0,68,0.00,,,0.00,132,Wunderground v.1.15,2013-07-05 00:22:00,
2013-07-04 19:32:00,69.8,59.2,29.97,SSW,203,8.0,8.0,69,0.00,,,0.00,107,Wunderground v.1.15,2013-07-05 00:32:00,
2013-07-04 19:42:00,69.1,59.3,29.97,South,189,7.0,7.0,71,0.00,,,0.00,86,Wunderground v.1.15,2013-07-05 00:42:00,
2013-07-04 19:52:00,68.1,59.1,29.97,South,172,6.0,6.0,73,0.00,,,0.00,67,Wunderground v.1.15,2013-07-05 00:52:00,
2013-07-04 20:03:00,67.1,58.5,29.97,SSW,193,6.0,7.0,74,0.00,,,0.00,51,Wunderground v.1.15,2013-07-05 01:03:00,
2013-07-04 20:12:00,66.8,58.2,29.97,South,191,8.0,8.0,74,0.00,,,0.00,39,Wunderground v.1.15,2013-07-05 01:12:00,
2013-07-04 20:22:00,66.4,57.9,29.97,South,181,6.0,8.0,74,0.00,,,0.00,18,Wunderground v.1.15,2013-07-05 01:22:00,
2013-07-04 20:32:00,66.0,57.8,29.97,South,189,4.0,4.0,75,0.00,,,0.00,11,Wunderground v.1.15,2013-07-05 01:32:00,
2013-07-04 20:42:00,65.8,57.3,29.96,South,184,4.0,4.0,74,0.00,,,0.00,7,Wunderground v.1.15,2013-07-05 01:42:00,
2013-07-04 20:52:00,65.6,57.5,29.97,South,172,3.0,3.0,75,0.00,,,0.00,0,Wunderground v.1.15,2013-07-05 01:52:00,
2013-07-04 21:02:00,65.5,57.4,29.97,SSW,192,4.0,5.0,75,0.00,,,0.00,0,Wunderground v.1.15,2013-07-05 02:02:00,
2013-07-04 21:12:00,65.3,57.5,29.97,SSW,192,2.0,5.0,76,0.00,,,0.00,0,Wunderground v.1.15,2013-07-05 02:12:00,
2013-07-04 21:22:00,65.2,57.8,29.97,South,182,2.0,2.0,77,0.00,,,0.00,0,Wunderground v.1.15,2013-07-05 02:22:00,
2013-07-04 21:42:00,65.3,57.9,29.97,SSW,195,2.0,2.0,77,0.00,,,0.00,0,Wunderground v.1.15,2013-07-05 02:42:00,
2013-07-04 21:52:00,65.8,58.0,29.98,SSW,198,2.0,5.0,76,0.00,,,0.00,0,Wunderground v.1.15,2013-07-05 02:52:00,
2013-07-04 22:02:00,66.4,58.6,29.98,South,191,5.0,6.0,76,0.00,,,0.00,0,Wunderground v.1.15,2013-07-05 03:02:00,
2013-07-04 22:12:00,66.9,59.1,29.98,South,189,5.0,5.0,76,0.00,,,0.00,0,Wunderground v.1.15,2013-07-05 03:12:00,
2013-07-04 22:22:00,66.9,59.5,29.98,South,191,4.0,4.0,77,0.00,,,0.00,0,Wunderground v.1.15,2013-07-05 03:22:00,
2013-07-04 22:32:00,67.1,60.0,29.98,SSW,206,4.0,4.0,78,0.00,,,0.00,0,Wunderground v.1.15,2013-07-05 03:32:00,
2013-07-04 22:42:00,66.9,60.2,29.98,South,178,4.0,4.0,79,0.00,,,0.00,0,Wunderground v.1.15,2013-07-05 03:42:00,
2013-07-04 22:52:00,66.8,60.4,29.98,South,185,4.0,4.0,80,0.00,,,0.00,0,Wunderground v.1.15,2013-07-05 03:52:00,
2013-07-04 23:02:00,66.4,60.4,29.98,South,174,2.0,2.0,81,0.00,,,0.00,0,Wunderground v.1.15,2013-07-05 04:02:00,
2013-07-04 23:12:00,66.4,60.7,29.98,South,181,4.0,4.0,82,0.00,,,0.00,0,Wunderground v.1.15,2013-07-05 04:12:00,
2013-07-04 23:22:00,66.3,61.0,29.98,SSE,161,4.0,4.0,83,0.00,,,0.00,0,Wunderground v.1.15,2013-07-05 04:22:00,
2013-07-04 23:32:00,66.1,60.8,29.98,SSW,198,4.0,4.0,83,0.00,,,0.00,0,Wunderground v.1.15,2013-07-05 04:32:00,
2013-07-04 23:42:00,65.8,60.8,29.99,South,175,4.0,5.0,84,0.00,,,0.00,0,Wunderground v.1.15,2013-07-05 04:42:00,
2013-07-04 23:52:00,65.8,61.2,29.98,South,184,3.0,5.0,85,0.00,,,0.00,0,Wunderground v.1.15,2013-07-05 04:52:00,